Location: Unspecified
(40.9447°N, 78.9903°W)
Time: 10:01:24
(UTC-04:00)

Resurs 1-4 Rocket - Pass Details

Date: 04 August 2021
Orbit: 799 x 814 km, 98.6° (Epoch: 27 September)

Event Time Altitude Azimuth Distance (km) Brightness Sun altitude
Rises 03:48:40 0° 2° (N) 3,336 6.2 -22.7°
Reaches altitude 10° 03:51:16 10° 352° (N) 2,398 5.1 -22.4°
Maximum altitude 03:55:45 29° 294° (WNW) 1,452 3.3 -21.9°
Enters shadow 03:56:36 27° 277° (W) 1,495 3.2 -21.8°
